Regional Weather Roundup
Issued by NWS

Home | Current Version | Previous Version | Text Only | Print | Product List | Glossary On
Versions: 1 2 3 4 5 6 7 8 9 10 11 12 13 14 15 16 17 18 19 20 21 22 23 24 25 26 27 28 29 30 31 32 33 34 35 36 37 38 39 40 41 42 43 44 45 46 47 48 49 50
000
ASUS42 KKEY 220910
RWRKEY

FLORIDA REGIONAL WEATHER ROUNDUP FOR THE FLORIDA KEYS
NATIONAL WEATHER SERVICE KEY WEST FLORIDA
500 AM EDT FRI SEP 22 2017

...SOUTH FLORIDA AND THE KEYS...

CITY           SKY/WX    TMP DP  RH WIND       PRES   REMARKS
FORT MYERS     CLEAR     76  74  93 NE6       29.89S
SW REGIONAL AP CLEAR     76  72  87 NE6       29.89F
NAPLES         CLEAR     76  74  93 NE5       29.88F
MIAMI          MOCLDY    80  78  94 NW3       29.87F
WEST KENDALL   CLEAR     76  74  93 CALM      29.86F
HOMESTEAD      CLEAR     77  77 100 NW3       29.85F
MARATHON       PTCLDY    82  72  71 E5        29.85F
BOCA CHICA NAS PTCLDY    85  79  82 MISG      29.86F HX  98
KEY WEST INTL  PTCLDY    83  76  79 E3        29.87S HX  91

...INTERNATIONAL WEATHER...

CITY           SKY/WX    TMP DP  RH WIND       PRES   REMARKS
NASSAU BAHAMAS PTCLDY    82  79  89 NE5       29.85S HX  93
CANCUN MEXICO  MOCLDY    75  75 100 CALM      29.86F
COZUMEL MEXICO PTCLDY    75  73  94 CALM      29.83F

ADJACENT COASTAL WATERS...

STATION/POSITION TIME  SKY/WX   TEMP    WIND        PRES    WAVE
                                AIR SEA DIR/SP/G            HT/PER
                 (UTC)          (F)     (DEG/KT/KT) (MB)    (FT/S)
PULASKI SHOAL LI 0900            83     110/  7/  7 1011.6F
SAND KEY         0850            83                 1012.0F
LONG KEY         NOT AVBL
MOLASSES REEF    NOT AVBL
FOWEY ROCKS      0800            83 85   50/  6/  7 1012.1F
Buoy 42097       0830               85                N/A     2/ 3

$$



USA.gov is the U.S. government's official web portal to all federal, state and local government web resources and services.